Weather History for Charleston, WV

Change the Weather History Date:

Saturday, May 25, 2013

  Actual Average Record
Temperature  
Mean Temperature 51 °F 66 °F  
Max Temperature 64 °F 77 °F 92 °F (1970)
Min Temperature 37 °F 55 °F 33 °F (1956)
Degree Days  
Heating Degree Days 14 2  
Month to date heating degree days 90 105  
Since 1 July heating degree days 4506 4453  
Cooling Degree Days 0 3  
Month to date cooling degree days 71 52  
Year to date cooling degree days 110 84  
Moisture  
Dew Point 39 °F    
Average Humidity 66    
Maximum Humidity 93    
Minimum Humidity 39    
Precipitation  
Precipitation 0.00 in 0.15 in 1.48 in (1902)
Month to date precipitation 4.55 3.80  
Year to date precipitation 15.42 17.14  
Snow  
Snow 0.00 in - - ()
Month to date snowfall 0.0  
Since 1 September snowfall 25.3  
Snow Depth 0.00 in    
Sea Level Pressure  
Sea Level Pressure 30.32 in    
Wind  
Wind Speed 3 mph (NNW)    
Max Wind Speed 17 mph    
Max Gust Speed 24 mph    
Visibility 9 miles    
Events      
T = Trace of Precipitation, MM = Missing Value Source: NWS Daily Summary

Daily Weather History Graph

Daily Weather History Graph

Search for Another Location

Airport:

Trip Planner

Search our weather history database for the weather conditions in past years. The results will help you decide how hot, cold, wet, or windy it might be!

Date:

Astronomy

May. 25, 2013 Rise Set
Actual Time 6:07 AM EDT 8:39 PM EDT
Civil Twilight 5:37 AM EDT 9:10 PM EDT
Nautical Twilight 4:59 AM EDT 9:48 PM EDT
Astronomical Twilight 4:17 AM EDT 10:30 PM EDT
Moon 9:26 PM EDT (5/25) 6:32 AM EDT (5/25)
Length of Visible Light 15h 32m
Length of Day
14h 31m
Full, 100% of the Moon is Illuminated
May 25
Full
May 31
Last Quarter
Jun 8
New
Jun 16
First Quarter
Jun 23
Full

Hourly Weather History & Observations

Time (EDT) Temp. Windchill Dew Point Humidity Pressure Visibility Wind Dir Wind Speed Gust Speed Precip Events Conditions
12:54 AM 45.0 °F 42.6 °F 37.9 °F 76% 30.31 in 10.0 mi NE 4.6 mph - N/A   Clear
1:54 AM 43.0 °F - 39.9 °F 89% 30.31 in 10.0 mi Calm Calm - N/A   Clear
2:54 AM 42.1 °F - 37.9 °F 85% 30.31 in 10.0 mi Calm Calm - N/A   Clear
3:54 AM 41.0 °F - 39.0 °F 93% 30.33 in 10.0 mi Calm Calm - N/A   Clear
4:54 AM 39.0 °F - 37.0 °F 93% 30.34 in 10.0 mi Calm Calm - N/A   Clear
5:54 AM 37.9 °F - 36.0 °F 93% 30.34 in 10.0 mi Calm Calm - N/A   Clear
6:26 AM 37.4 °F - 35.6 °F 93% 30.35 in 5.0 mi Calm Calm - N/A   Partly Cloudy
6:54 AM 37.9 °F - 36.0 °F 93% 30.35 in 4.0 mi Calm Calm - N/A   Scattered Clouds
7:54 AM 41.0 °F - 39.0 °F 93% 30.36 in 6.0 mi Calm Calm - N/A   Partly Cloudy
8:54 AM 46.0 °F - 39.9 °F 79% 30.37 in 10.0 mi Calm Calm - N/A   Clear
9:54 AM 50.0 °F - 35.1 °F 57% 30.39 in 10.0 mi Calm Calm - N/A   Clear
10:54 AM 54.0 °F - 37.0 °F 53% 30.39 in 10.0 mi NNW 6.9 mph - N/A   Partly Cloudy
11:54 AM 57.0 °F - 36.0 °F 45% 30.37 in 10.0 mi NNW 9.2 mph - N/A   Partly Cloudy
12:54 PM 61.0 °F - 37.9 °F 42% 30.36 in 10.0 mi NNW 6.9 mph - N/A   Partly Cloudy
1:54 PM 60.1 °F - 37.9 °F 44% 30.33 in 10.0 mi Variable 3.5 mph - N/A   Partly Cloudy
2:54 PM 61.0 °F - 37.0 °F 41% 30.31 in 10.0 mi NW 4.6 mph 19.6 mph N/A   Scattered Clouds
3:54 PM 63.0 °F - 37.9 °F 40% 30.30 in 10.0 mi NNW 15.0 mph - N/A   Partly Cloudy
4:54 PM 63.0 °F - 37.9 °F 40% 30.28 in 10.0 mi NW 10.4 mph - N/A   Partly Cloudy
5:54 PM 63.0 °F - 39.0 °F 41% 30.28 in 10.0 mi NW 8.1 mph - N/A   Scattered Clouds
6:54 PM 62.1 °F - 39.0 °F 43% 30.27 in 10.0 mi North 4.6 mph - N/A   Partly Cloudy
7:54 PM 62.1 °F - 41.0 °F 46% 30.26 in 10.0 mi Calm Calm - N/A   Partly Cloudy
8:54 PM 55.0 °F - 45.0 °F 69% 30.25 in 10.0 mi Calm Calm - N/A   Scattered Clouds
9:54 PM 53.1 °F - 45.0 °F 74% 30.25 in 10.0 mi Calm Calm - N/A   Scattered Clouds
10:54 PM 50.0 °F - 45.0 °F 83% 30.26 in 10.0 mi Calm Calm - N/A   Partly Cloudy
11:54 PM 48.9 °F - 44.1 °F 83% 30.27 in 10.0 mi Calm Calm - N/A   Partly Cloudy